Middlesboro, KY

1:15 AM EST on February 23, 2017 (GMT -0500)
Middlesboro

Weather History for K1A6 - December, 2012

Change the Weather History Date:

Thursday, December 13, 2012

  Actual Average (KLOZ) Record (KLOZ)
Temperature  
Mean Temperature 40 °F -  
Max Temperature 55 °F 49 °F 67 °F (1984)
Min Temperature 24 °F 30 °F -17 °F (1962)
Degree Days  
Heating Degree Days 26    
Moisture  
Dew Point 31 °F    
Average Humidity 84    
Maximum Humidity 100    
Minimum Humidity 51    
Precipitation  
Precipitation 0.00 in - - ()
Sea Level Pressure  
Sea Level Pressure 30.34 in    
Wind  
Wind Speed 0 mph (SSE)    
Max Wind Speed 4 mph    
Max Gust Speed -    
Visibility 8 miles    
Events      
Averages and records for this station are not official NWS values.
T = Trace of Precipitation, MM = Missing Value Source: NWS Daily Summary

Daily Weather History Graph

Daily Weather History Graph

Search for Another Location

Airport or City:

Trip Planner

Search our weather history database for the weather conditions in past years. The results will help you decide how hot, cold, wet, or windy it might be!

Date:

Astronomy

Dec. 13, 2012 Rise Set
Actual Time 6:38 AM CST 4:19 PM CST
Civil Twilight 6:10 AM CST 4:48 PM CST
Nautical Twilight 5:37 AM CST 5:21 PM CST
Astronomical Twilight 5:06 AM CST 5:52 PM CST
Moon 6:46 AM CST (12/13) 5:00 PM CST (12/13)
Length of Visible Light 10h 38m
Length of Day
9h 41m
New Moon, 0% of the Moon is Illuminated
Dec 13
New Moon
Dec 19
First Quarter
Dec 28
Full
Jan 4
Last Quarter
Jan 11
New

Hourly Weather History & Observations

Time (CST) Temp. Dew Point Humidity Pressure Visibility Wind Dir Wind Speed Gust Speed Precip Events Conditions
12:15 AM 28.4 °F 26.6 °F 93% 30.31 in 7.0 mi Calm Calm - N/A   Clear
12:35 AM 28.4 °F 26.6 °F 93% 30.31 in 7.0 mi Calm Calm - N/A   Clear
12:55 AM 28.4 °F - N/A% 30.31 in 7.0 mi Calm Calm - N/A   Clear
1:15 AM 26.6 °F 26.6 °F 100% 30.31 in 10.0 mi Calm Calm - N/A   Clear
1:35 AM 26.6 °F 26.6 °F 100% 30.32 in 7.0 mi Calm Calm - N/A   Clear
1:55 AM 26.6 °F 26.6 °F 100% 30.33 in 10.0 mi Calm Calm - N/A   Clear
2:15 AM 26.6 °F 26.6 °F 100% 30.34 in 7.0 mi Calm Calm - N/A   Clear
2:35 AM 26.6 °F 26.6 °F 100% 30.34 in 7.0 mi Calm Calm - N/A   Clear
2:55 AM 26.6 °F 24.8 °F 93% 30.34 in 7.0 mi Calm Calm - N/A   Clear
3:15 AM 26.6 °F 24.8 °F 93% 30.33 in 7.0 mi Calm Calm - N/A   Unknown
3:35 AM 26.6 °F 24.8 °F 93% 30.33 in 7.0 mi Calm Calm - N/A   Clear
3:55 AM 26.6 °F 24.8 °F 93% 30.34 in 7.0 mi Calm Calm - N/A   Clear
4:15 AM 24.8 °F 24.8 °F 100% 30.35 in 10.0 mi Calm Calm - N/A   Clear
4:35 AM 24.8 °F 24.8 °F 100% 30.35 in 7.0 mi Calm Calm - N/A   Clear
4:55 AM 24.8 °F 24.8 °F 100% 30.35 in 7.0 mi Calm Calm - N/A   Clear
5:15 AM 24.8 °F 24.8 °F 100% 30.35 in 7.0 mi Calm Calm - N/A   Clear
5:35 AM 24.8 °F 24.8 °F 100% 30.35 in 7.0 mi Calm Calm - N/A   Clear
6:15 AM 24.8 °F 24.8 °F 100% 30.37 in 10.0 mi Calm Calm - N/A   Clear
6:35 AM 24.8 °F 23.0 °F 93% 30.38 in 7.0 mi Calm Calm - N/A   Clear
6:55 AM 24.8 °F 24.8 °F 100% 30.38 in 5.0 mi Calm Calm - N/A   Clear
7:15 AM 24.8 °F 23.0 °F 93% 30.39 in 7.0 mi Calm Calm - N/A   Clear
7:35 AM 24.8 °F 24.8 °F 100% 30.39 in 5.0 mi Calm Calm - N/A   Clear
7:55 AM 26.6 °F 24.8 °F 93% 30.39 in 5.0 mi Calm Calm - N/A   Clear
8:15 AM 28.4 °F 26.6 °F 93% 30.39 in 5.0 mi Calm Calm - N/A   Clear
8:35 AM 30.2 °F 28.4 °F 93% 30.39 in 7.0 mi Calm Calm - N/A   Clear
8:55 AM 33.8 °F 32.0 °F 93% 30.39 in 7.0 mi Calm Calm - N/A   Clear
9:15 AM 35.6 °F 30.2 °F 81% 30.39 in 1.0 mi Calm Calm - N/A   Clear
9:35 AM 35.6 °F 32.0 °F 87% 30.38 in 1.0 mi Calm Calm - N/A   Clear
9:55 AM 39.2 °F 33.8 °F 81% 30.38 in 1.0 mi Calm Calm - N/A   Clear
10:15 AM 39.2 °F 33.8 °F 81% 30.38 in 10.0 mi Calm Calm - N/A   Clear
10:35 AM 42.8 °F 35.6 °F 76% 30.37 in 10.0 mi Calm Calm - N/A   Clear
10:55 AM 44.6 °F 33.8 °F 66% 30.36 in 10.0 mi Calm Calm - N/A   Clear
11:15 AM 46.4 °F 35.6 °F 66% 30.35 in 10.0 mi Calm Calm - N/A   Clear
11:35 AM 48.2 °F 35.6 °F 62% 30.35 in 10.0 mi Calm Calm - N/A   Clear
11:55 AM 51.8 °F 35.6 °F 54% 30.34 in 10.0 mi Calm Calm - N/A   Clear
12:15 PM 51.8 °F 37.4 °F 58% 30.33 in 10.0 mi East 3.5 mph - N/A   Clear
12:35 PM 53.6 °F 37.4 °F 54% 30.32 in 10.0 mi Calm Calm - N/A   Clear
12:55 PM 53.6 °F 37.4 °F 54% 30.31 in 10.0 mi Calm Calm - N/A   Clear
1:15 PM 55.4 °F 39.2 °F 54% 30.31 in 10.0 mi Calm Calm - N/A   Clear
1:35 PM 55.4 °F 37.4 °F 51% 30.31 in 10.0 mi Calm Calm - N/A   Clear
1:55 PM 55.4 °F 39.2 °F 54% 30.30 in 10.0 mi Calm Calm - N/A   Clear
2:15 PM 55.4 °F 37.4 °F 51% 30.30 in 10.0 mi Calm Calm - N/A   Clear
2:35 PM 55.4 °F 37.4 °F 51% 30.29 in 10.0 mi Calm Calm - N/A   Clear
2:55 PM 55.4 °F 37.4 °F 51% 30.29 in 10.0 mi Calm Calm - N/A   Clear
3:15 PM 55.4 °F 37.4 °F 51% 30.29 in 10.0 mi SSW 3.5 mph - N/A   Clear
3:35 PM 53.6 °F 35.6 °F 51% 30.29 in 10.0 mi South 3.5 mph - N/A   Clear
3:55 PM 51.8 °F 37.4 °F 58% 30.29 in 10.0 mi Calm Calm - N/A   Clear
4:15 PM 46.4 °F 37.4 °F 71% 30.29 in 10.0 mi Calm Calm - N/A   Clear
4:35 PM 44.6 °F 37.4 °F 76% 30.29 in 10.0 mi Calm Calm - N/A   Clear
7:15 PM 33.8 °F 33.8 °F 100% 30.31 in 10.0 mi Calm Calm - N/A   Clear
7:35 PM 33.8 °F 33.8 °F 100% 30.31 in 10.0 mi Calm Calm - N/A   Clear
7:55 PM 33.8 °F 33.8 °F 100% 30.31 in 10.0 mi North - - N/A   Clear
8:15 PM 32.0 °F 32.0 °F 100% 30.31 in 10.0 mi Calm Calm - N/A   Clear
8:35 PM 32.0 °F 30.2 °F 93% 30.31 in 7.0 mi Calm Calm - N/A   Clear
8:55 PM 32.0 °F 30.2 °F 93% 30.31 in 10.0 mi Calm Calm - N/A   Clear
9:35 PM 30.2 °F 30.2 °F 100% 30.32 in 7.0 mi Calm Calm - N/A   Clear
9:55 PM 30.2 °F 30.2 °F 100% 30.33 in 7.0 mi Calm Calm - N/A   Clear
10:15 PM 30.2 °F 28.4 °F 93% 30.33 in 7.0 mi Calm Calm - N/A   Clear
10:35 PM 30.2 °F 28.4 °F 93% 30.33 in 7.0 mi Calm Calm - N/A   Clear
10:55 PM 30.2 °F 28.4 °F 93% 30.33 in 7.0 mi North - - N/A   Clear
11:15 PM 28.4 °F 28.4 °F 100% 30.33 in 7.0 mi Calm Calm - N/A   Clear
11:35 PM 28.4 °F 28.4 °F 100% 30.33 in 7.0 mi Calm Calm - N/A   Clear
11:55 PM 28.4 °F 28.4 °F 100% 30.33 in 5.0 mi North - - N/A   Clear